When you browse on this site, cookies collect data to enhance your experience and personalize the content and advertising you see.
Visit our Privacy Policy to learn more. By continuing to use the site, you agree to this use of cookies and data.
  • In Latvia
  • List of Countries
  • For 7 days
  • Water Temperature
  • Weather Map
  • Weather Widgets
  • user-avatar
    Login

    Hourly Weather Popowo

    Today, 26 February, Wednesday

    Time Temperature Precipitation Wind Pressure Humidity
    00:00 +3°C° 0 mm 3 mps 736 mmHg 84%
    01:00 +3°C° 0 mm 3 mps 735 mmHg 88%
    02:00 +3°C° 0 mm 3 mps 735 mmHg 89%
    03:00 +2°C° 0 mm 3 mps 735 mmHg 89%
    04:00 +1°C° 0 mm 4 mps 734 mmHg 90%
    05:00 +2°C° 0 mm 3 mps 734 mmHg 91%
    06:00 +2°C° 0 mm 3 mps 734 mmHg 92%
    07:00 +1°C° 0 mm 3 mps 734 mmHg 92%
    08:00 +1°C° 0.1 mm 4 mps 734 mmHg 90%
    09:00 +3°C° 0.1 mm 4 mps 734 mmHg 88%
    10:00 +3°C° 0.1 mm 5 mps 734 mmHg 86%
    11:00 +3°C° 0 mm 5 mps 734 mmHg 83%
    12:00 +4°C° 0 mm 4 mps 733 mmHg 79%
    13:00 +4°C° 0 mm 3 mps 733 mmHg 75%
    14:00 +4°C° 0 mm 3 mps 733 mmHg 73%
    15:00 +4°C° 0 mm 3 mps 733 mmHg 70%
    16:00 +4°C° 0 mm 3 mps 733 mmHg 68%
    17:00 +4°C° 0.1 mm 3 mps 734 mmHg 74%
    18:00 +3°C° 0.1 mm 3 mps 734 mmHg 80%
    19:00 +2°C° 0.1 mm 3 mps 734 mmHg 86%
    20:00 +2°C° 0.7 mm 3 mps 735 mmHg 89%
    21:00 +1°C° 0.7 mm 3 mps 735 mmHg 92%
    22:00 0°C° 0.7 mm 3 mps 735 mmHg 95%
    23:00 0°C° 0.5 mm 3 mps 735 mmHg 94%

    Tomorrow, 27 February, Thursday

    Time Temperature Precipitation Wind Pressure Humidity
    00:00 +1°C° 0.5 mm 3 mps 736 mmHg 93%
    01:00 0°C° 0.5 mm 4 mps 736 mmHg 92%
    02:00 0°C° 0.1 mm 4 mps 736 mmHg 90%
    03:00 0°C° 0.1 mm 5 mps 736 mmHg 88%
    04:00 0°C° 0.1 mm 5 mps 737 mmHg 85%
    05:00 -2°C° 0.1 mm 6 mps 737 mmHg 88%
    06:00 -2°C° 0.1 mm 6 mps 738 mmHg 91%
    07:00 -3°C° 0.1 mm 6 mps 738 mmHg 93%
    08:00 -2°C° 0.1 mm 6 mps 739 mmHg 88%
    09:00 -2°C° 0.1 mm 7 mps 739 mmHg 82%
    10:00 -1°C° 0.1 mm 7 mps 740 mmHg 76%
    11:00 -1°C° 0.1 mm 7 mps 740 mmHg 72%
    12:00 -1°C° 0.1 mm 7 mps 740 mmHg 69%
    13:00 +1°C° 0.1 mm 6 mps 740 mmHg 65%
    14:00 +1°C° 0 mm 6 mps 740 mmHg 66%
    15:00 +1°C° 0 mm 6 mps 740 mmHg 67%
    16:00 +1°C° 0 mm 5 mps 740 mmHg 68%
    17:00 0°C° 0 mm 4 mps 740 mmHg 74%
    18:00 0°C° 0 mm 3 mps 740 mmHg 79%
    19:00 -1°C° 0 mm 2 mps 739 mmHg 85%
    20:00 -1°C° 0 mm 2 mps 739 mmHg 87%
    21:00 -1°C° 0 mm 2 mps 739 mmHg 89%
    22:00 -1°C° 0 mm 2 mps 738 mmHg 91%
    23:00 -1°C° 0 mm 2 mps 738 mmHg 90%

    Day after tomorrow, 28 February, Friday

    Time Temperature Precipitation Wind Pressure Humidity
    00:00 -1°C° 0 mm 2 mps 738 mmHg 89%
    01:00 -1°C° 0 mm 2 mps 738 mmHg 88%
    02:00 -1°C° 0 mm 2 mps 737 mmHg 86%
    03:00 -1°C° 0 mm 3 mps 737 mmHg 85%
    04:00 0°C° 0 mm 3 mps 737 mmHg 84%
    05:00 -1°C° 0 mm 3 mps 737 mmHg 86%
    06:00 -1°C° 0 mm 2 mps 738 mmHg 89%
    07:00 -1°C° 0 mm 2 mps 738 mmHg 92%
    08:00 +1°C° 0.1 mm 2 mps 739 mmHg 89%
    09:00 +1°C° 0.1 mm 2 mps 740 mmHg 86%
    10:00 +2°C° 0.1 mm 2 mps 741 mmHg 83%
    11:00 +2°C° 0 mm 3 mps 742 mmHg 80%
    12:00 +1°C° 0 mm 4 mps 743 mmHg 77%
    13:00 +1°C° 0 mm 5 mps 743 mmHg 74%
    14:00 +1°C° 0.1 mm 5 mps 744 mmHg 75%
    15:00 +1°C° 0.1 mm 6 mps 744 mmHg 76%
    16:00 +1°C° 0.1 mm 6 mps 745 mmHg 77%
    17:00 0°C° 0 mm 5 mps 745 mmHg 79%
    18:00 0°C° 0 mm 5 mps 746 mmHg 81%
    19:00 -1°C° 0 mm 4 mps 746 mmHg 83%
    20:00 -1°C° 0 mm 4 mps 746 mmHg 85%
    21:00 -1°C° 0 mm 4 mps 746 mmHg 86%
    22:00 -1°C° 0 mm 4 mps 746 mmHg 87%
    23:00 -1°C° 0.1 mm 5 mps 747 mmHg 87%

    29 February, Saturday

    Time Temperature Precipitation Wind Pressure Humidity
    00:00 -1°C° 0.1 mm 5 mps 747 mmHg 87%
    01:00 -1°C° 0.1 mm 6 mps 748 mmHg 87%
    02:00 -1°C° 0 mm 5 mps 748 mmHg 88%
    03:00 -1°C° 0 mm 5 mps 748 mmHg 89%
    04:00 -1°C° 0 mm 4 mps 748 mmHg 90%
    05:00 -2°C° 0 mm 4 mps 748 mmHg 92%
    06:00 -1°C° 0 mm 3 mps 748 mmHg 93%
    07:00 -2°C° 0 mm 3 mps 749 mmHg 95%
    08:00 -1°C° 0 mm 3 mps 749 mmHg 90%
    09:00 0°C° 0 mm 3 mps 749 mmHg 85%
    10:00 +2°C° 0 mm 3 mps 749 mmHg 79%
    11:00 +2°C° 0 mm 3 mps 748 mmHg 75%
    12:00 +3°C° 0 mm 4 mps 748 mmHg 71%
    13:00 +4°C° 0 mm 4 mps 747 mmHg 67%
    14:00 +3°C° 0 mm 5 mps 746 mmHg 64%
    15:00 +3°C° 0 mm 5 mps 746 mmHg 62%
    16:00 +3°C° 0 mm 6 mps 745 mmHg 59%
    17:00 +3°C° 0 mm 6 mps 745 mmHg 59%
    18:00 +2°C° 0 mm 6 mps 744 mmHg 60%
    19:00 +2°C° 0 mm 7 mps 743 mmHg 60%
    20:00 +2°C° 0 mm 7 mps 743 mmHg 61%
    21:00 +2°C° 0 mm 7 mps 743 mmHg 61%
    22:00 +2°C° 0 mm 7 mps 742 mmHg 62%
    23:00 +2°C° 0 mm 7 mps 742 mmHg 64%

    1 March, Sunday

    Time Temperature Precipitation Wind Pressure Humidity
    00:00 +2°C° 0 mm 7 mps 742 mmHg 66%
    01:00 +2°C° 0 mm 7 mps 741 mmHg 68%
    02:00 +2°C° 0.6 mm 6 mps 741 mmHg 73%
    03:00 +2°C° 0.6 mm 6 mps 741 mmHg 77%
    04:00 +3°C° 0.6 mm 5 mps 741 mmHg 82%
    05:00 +3°C° 0.6 mm 5 mps 741 mmHg 86%
    06:00 +3°C° 0.6 mm 5 mps 741 mmHg 90%
    07:00 +3°C° 0.6 mm 5 mps 741 mmHg 93%
    08:00 +4°C° 0.2 mm 4 mps 742 mmHg 89%
    09:00 +5°C° 0.2 mm 4 mps 742 mmHg 84%
    10:00 +5°C° 0.2 mm 4 mps 742 mmHg 79%
    11:00 +5°C° 0 mm 4 mps 742 mmHg 75%
    12:00 +6°C° 0 mm 5 mps 742 mmHg 70%
    13:00 +6°C° 0 mm 5 mps 742 mmHg 65%
    14:00 +6°C° 0 mm 5 mps 742 mmHg 65%
    15:00 +6°C° 0 mm 4 mps 742 mmHg 65%
    16:00 +6°C° 0 mm 4 mps 742 mmHg 64%
    17:00 +5°C° 0 mm 4 mps 742 mmHg 70%
    18:00 +4°C° 0 mm 3 mps 742 mmHg 75%
    19:00 +5°C° 0 mm 2 mps 742 mmHg 80%
    20:00 +4°C° 0 mm 2 mps 742 mmHg 82%
    21:00 +4°C° 0 mm 2 mps 743 mmHg 83%
    22:00 +3°C° 0 mm 2 mps 743 mmHg 84%
    23:00 +3°C° 0 mm 2 mps 742 mmHg 85%

    2 March, Monday

    Time Temperature Precipitation Wind Pressure Humidity
    00:00 +3°C° 0 mm 2 mps 742 mmHg 85%
    01:00 +2°C° 0 mm 2 mps 742 mmHg 85%
    02:00 +2°C° 0 mm 2 mps 742 mmHg 87%
    03:00 +2°C° 0 mm 2 mps 742 mmHg 88%
    04:00 +1°C° 0 mm 2 mps 742 mmHg 89%
    05:00 0°C° 0 mm 3 mps 742 mmHg 89%
    06:00 0°C° 0 mm 3 mps 742 mmHg 90%
    07:00 0°C° 0 mm 3 mps 742 mmHg 90%
    08:00 +2°C° 0 mm 3 mps 742 mmHg 84%
    09:00 +3°C° 0 mm 4 mps 742 mmHg 78%
    10:00 +5°C° 0 mm 4 mps 742 mmHg 71%
    11:00 +6°C° 0 mm 4 mps 742 mmHg 66%
    12:00 +7°C° 0 mm 5 mps 742 mmHg 61%
    13:00 +8°C° 0 mm 5 mps 742 mmHg 55%
    14:00 +8°C° 0 mm 5 mps 741 mmHg 57%
    15:00 +8°C° 0 mm 4 mps 741 mmHg 58%
    16:00 +8°C° 0 mm 4 mps 741 mmHg 59%
    17:00 +7°C° 0 mm 4 mps 741 mmHg 63%
    18:00 +6°C° 0 mm 4 mps 741 mmHg 66%
    19:00 +5°C° 0 mm 4 mps 741 mmHg 70%
    20:00 +5°C° 0 mm 5 mps 741 mmHg 71%
    21:00 +5°C° 0 mm 5 mps 741 mmHg 71%
    22:00 +5°C° 0 mm 5 mps 741 mmHg 72%
    23:00 +5°C° 0 mm 4 mps 742 mmHg 75%
    Show more